Time,TemperatureF,DewpointF,PressureIn,WindDirection,WindDirectionDegrees,WindSpeedMPH,WindSpeedGustMPH,Humidity,HourlyPrecipIn,Conditions,Clouds,dailyrainin,SoftwareType,DateUTC
2014-01-11 00:00:00,27.5,26.8,27.69,South,180,0.0,-999.0,97,-99.99,,,0.00,Acu-Link.com,2014-01-11 06:00:00,
2014-01-11 00:15:00,27.5,26.8,27.69,West,270,0.0,-999.0,97,-99.99,,,0.00,Acu-Link.com,2014-01-11 06:15:00,
2014-01-11 00:30:00,27.7,27.0,27.69,South,180,0.0,-999.0,97,-99.99,,,0.00,Acu-Link.com,2014-01-11 06:30:00,
2014-01-11 00:45:00,27.9,27.2,27.68,SSE,157,0.0,-999.0,97,-99.99,,,0.00,Acu-Link.com,2014-01-11 06:45:00,
2014-01-11 01:00:00,27.9,27.2,27.68,West,270,0.0,-999.0,97,-99.99,,,0.00,Acu-Link.com,2014-01-11 07:00:00,
2014-01-11 01:15:00,27.9,27.2,27.68,WNW,292,0.0,-999.0,97,-99.99,,,0.00,Acu-Link.com,2014-01-11 07:15:00,
2014-01-11 01:30:00,27.9,27.2,27.69,SSE,157,0.0,-999.0,97,-99.99,,,0.00,Acu-Link.com,2014-01-11 07:30:00,
2014-01-11 01:45:00,27.9,27.2,27.69,NE,45,0.0,-999.0,97,-99.99,,,0.00,Acu-Link.com,2014-01-11 07:45:00,
2014-01-11 02:01:00,28.0,27.3,27.69,WNW,292,0.0,-999.0,97,-99.99,,,0.00,Acu-Link.com,2014-01-11 08:01:00,
2014-01-11 02:16:00,28.2,27.5,27.69,WSW,247,0.0,-999.0,97,-99.99,,,0.00,Acu-Link.com,2014-01-11 08:16:00,
2014-01-11 02:31:00,28.4,27.7,27.70,West,270,0.0,-999.0,97,-99.99,,,0.00,Acu-Link.com,2014-01-11 08:31:00,
2014-01-11 02:46:00,28.6,27.9,27.69,NNW,337,0.0,-999.0,97,-99.99,,,0.00,Acu-Link.com,2014-01-11 08:46:00,
2014-01-11 03:01:00,28.6,27.9,27.70,West,270,0.0,-999.0,97,-99.99,,,0.00,Acu-Link.com,2014-01-11 09:01:00,
2014-01-11 03:16:00,28.6,27.9,27.69,NNW,337,3.7,-999.0,97,-99.99,,,0.00,Acu-Link.com,2014-01-11 09:16:00,
2014-01-11 03:31:00,28.6,27.9,27.69,NNE,22,0.0,-999.0,97,-99.99,,,0.00,Acu-Link.com,2014-01-11 09:31:00,
2014-01-11 03:46:00,28.8,28.1,27.68,NNW,337,0.0,-999.0,97,-99.99,,,0.00,Acu-Link.com,2014-01-11 09:46:00,
2014-01-11 04:01:00,28.8,28.1,27.69,North,0,0.0,-999.0,97,-99.99,,,0.00,Acu-Link.com,2014-01-11 10:01:00,
2014-01-11 04:17:00,28.8,28.1,27.69,NNE,22,3.2,-999.0,97,-99.99,,,0.00,Acu-Link.com,2014-01-11 10:17:00,
2014-01-11 04:32:00,28.8,27.8,27.69,WSW,247,0.0,-999.0,96,-99.99,,,0.00,Acu-Link.com,2014-01-11 10:32:00,
2014-01-11 04:47:00,28.6,27.6,27.70,NNW,337,1.1,-999.0,96,-99.99,,,0.00,Acu-Link.com,2014-01-11 10:47:00,
2014-01-11 05:02:00,28.8,27.6,27.70,NNW,337,0.0,-999.0,95,-99.99,,,0.00,Acu-Link.com,2014-01-11 11:02:00,
2014-01-11 05:17:00,28.8,27.6,27.70,North,0,2.7,-999.0,95,-99.99,,,0.00,Acu-Link.com,2014-01-11 11:17:00,
2014-01-11 05:32:00,28.8,27.3,27.69,NNW,337,0.0,-999.0,94,-99.99,,,0.00,Acu-Link.com,2014-01-11 11:32:00,
2014-01-11 05:47:00,28.6,27.1,27.70,SSW,202,0.0,-999.0,94,-99.99,,,0.00,Acu-Link.com,2014-01-11 11:47:00,
2014-01-11 06:02:00,28.2,26.7,27.70,WSW,247,0.0,-999.0,94,-99.99,,,0.00,Acu-Link.com,2014-01-11 12:02:00,
2014-01-11 06:17:00,28.2,27.0,27.70,WNW,292,2.7,-999.0,95,-99.99,,,0.00,Acu-Link.com,2014-01-11 12:17:00,
2014-01-11 06:33:00,28.6,27.1,27.70,NW,315,0.0,-999.0,94,-99.99,,,0.00,Acu-Link.com,2014-01-11 12:33:00,
2014-01-11 06:48:00,28.6,27.1,27.70,NW,315,0.0,-999.0,94,-99.99,,,0.00,Acu-Link.com,2014-01-11 12:48:00,
2014-01-11 07:03:00,28.4,26.9,27.70,WNW,292,0.0,-999.0,94,-99.99,,,0.00,Acu-Link.com,2014-01-11 13:03:00,
2014-01-11 07:18:00,28.2,26.4,27.71,WNW,292,0.0,-999.0,93,-99.99,,,0.00,Acu-Link.com,2014-01-11 13:18:00,
2014-01-11 07:33:00,28.2,26.4,27.71,NW,315,0.0,-999.0,93,-99.99,,,0.00,Acu-Link.com,2014-01-11 13:33:00,
2014-01-11 07:48:00,28.0,26.2,27.71,WNW,292,0.0,-999.0,93,-99.99,,,0.00,Acu-Link.com,2014-01-11 13:48:00,
2014-01-11 08:03:00,27.9,26.1,27.71,WSW,247,0.0,-999.0,93,-99.99,,,0.00,Acu-Link.com,2014-01-11 14:03:00,
2014-01-11 08:18:00,27.7,26.2,27.72,NW,315,0.0,-999.0,94,-99.99,,,0.00,Acu-Link.com,2014-01-11 14:18:00,
2014-01-11 08:33:00,27.7,26.2,27.72,West,270,0.0,-999.0,94,-99.99,,,0.00,Acu-Link.com,2014-01-11 14:33:00,
2014-01-11 08:49:00,27.7,26.2,27.73,NW,315,0.0,-999.0,94,-99.99,,,0.00,Acu-Link.com,2014-01-11 14:49:00,
2014-01-11 09:04:00,27.3,25.8,27.73,West,270,0.0,-999.0,94,-99.99,,,0.00,Acu-Link.com,2014-01-11 15:04:00,
2014-01-11 09:19:00,27.3,25.5,27.74,WNW,292,0.0,-999.0,93,-99.99,,,0.00,Acu-Link.com,2014-01-11 15:19:00,
2014-01-11 09:34:00,27.0,25.3,27.75,North,0,1.1,-999.0,93,-99.99,,,0.00,Acu-Link.com,2014-01-11 15:34:00,
2014-01-11 09:49:00,27.1,25.4,27.75,NW,315,0.0,-999.0,93,-99.99,,,0.00,Acu-Link.com,2014-01-11 15:49:00,
2014-01-11 10:04:00,27.1,25.1,27.75,NNW,337,1.1,-999.0,92,-99.99,,,0.00,Acu-Link.com,2014-01-11 16:04:00,
2014-01-11 10:19:00,27.5,25.5,27.75,WNW,292,0.0,-999.0,92,-99.99,,,0.00,Acu-Link.com,2014-01-11 16:19:00,
2014-01-11 10:34:00,27.9,25.6,27.77,North,0,5.8,-999.0,91,-99.99,,,0.00,Acu-Link.com,2014-01-11 16:34:00,
2014-01-11 10:49:00,28.0,25.5,27.77,NW,315,4.7,-999.0,90,-99.99,,,0.00,Acu-Link.com,2014-01-11 16:49:00,
2014-01-11 11:04:00,28.6,25.8,27.78,NW,315,3.7,-999.0,89,-99.99,,,0.00,Acu-Link.com,2014-01-11 17:04:00,
2014-01-11 11:20:00,28.8,25.7,27.77,West,270,2.7,-999.0,88,-99.99,,,0.00,Acu-Link.com,2014-01-11 17:20:00,
2014-01-11 11:35:00,29.5,26.1,27.78,WNW,292,5.3,-999.0,87,-99.99,,,0.00,Acu-Link.com,2014-01-11 17:35:00,
2014-01-11 11:50:00,29.8,26.1,27.78,South,180,3.2,-999.0,86,-99.99,,,0.00,Acu-Link.com,2014-01-11 17:50:00,
2014-01-11 12:05:00,30.4,26.4,27.78,NNW,337,5.8,-999.0,85,-99.99,,,0.00,Acu-Link.com,2014-01-11 18:05:00,
2014-01-11 12:20:00,30.4,26.4,27.78,NNW,337,2.7,-999.0,85,-99.99,,,0.00,Acu-Link.com,2014-01-11 18:20:00,
2014-01-11 12:35:00,30.7,26.7,27.78,NW,315,4.2,-999.0,85,-99.99,,,0.00,Acu-Link.com,2014-01-11 18:35:00,
2014-01-11 12:50:00,30.9,26.9,27.78,North,0,1.7,-999.0,85,-99.99,,,0.00,Acu-Link.com,2014-01-11 18:50:00,
2014-01-11 13:05:00,31.5,26.9,27.78,NNW,337,6.3,-999.0,83,-99.99,,,0.00,Acu-Link.com,2014-01-11 19:05:00,
2014-01-11 13:20:00,31.5,26.9,27.78,NNW,337,3.7,-999.0,83,-99.99,,,0.00,Acu-Link.com,2014-01-11 19:20:00,
2014-01-11 13:36:00,31.8,26.9,27.78,NNW,337,5.3,-999.0,82,-99.99,,,0.00,Acu-Link.com,2014-01-11 19:36:00,
2014-01-11 13:51:00,32.0,27.1,27.79,NNW,337,4.7,-999.0,82,-99.99,,,0.00,Acu-Link.com,2014-01-11 19:51:00,
2014-01-11 14:06:00,32.5,27.0,27.79,NW,315,0.0,-999.0,80,-99.99,,,0.00,Acu-Link.com,2014-01-11 20:06:00,
2014-01-11 14:21:00,32.9,27.1,27.79,NW,315,4.7,-999.0,79,-99.99,,,0.00,Acu-Link.com,2014-01-11 20:21:00,
2014-01-11 14:36:00,32.4,26.6,27.79,West,270,0.0,-999.0,79,-99.99,,,0.00,Acu-Link.com,2014-01-11 20:36:00,
2014-01-11 14:51:00,31.6,26.2,27.81,North,0,2.2,-999.0,80,-99.99,,,0.00,Acu-Link.com,2014-01-11 20:51:00,
2014-01-11 15:06:00,31.3,26.2,27.81,East,90,6.8,-999.0,81,-99.99,,,0.00,Acu-Link.com,2014-01-11 21:06:00,
2014-01-11 15:21:00,32.0,26.5,27.82,West,270,0.0,-999.0,80,-99.99,,,0.00,Acu-Link.com,2014-01-11 21:21:00,
2014-01-11 15:36:00,30.6,25.5,27.83,West,270,4.2,-999.0,81,-99.99,,,0.00,Acu-Link.com,2014-01-11 21:36:00,
2014-01-11 15:52:00,30.9,24.9,27.83,WSW,247,0.0,-999.0,78,-99.99,,,0.00,Acu-Link.com,2014-01-11 21:52:00,
2014-01-11 16:07:00,30.4,24.7,27.83,NW,315,0.0,-999.0,79,-99.99,,,0.00,Acu-Link.com,2014-01-11 22:07:00,
2014-01-11 16:22:00,28.8,23.4,27.83,South,180,0.0,-999.0,80,-99.99,,,0.00,Acu-Link.com,2014-01-11 22:22:00,
2014-01-11 16:37:00,27.1,22.6,27.84,West,270,0.0,-999.0,83,-99.99,,,0.00,Acu-Link.com,2014-01-11 22:37:00,
2014-01-11 16:52:00,25.0,21.4,27.84,West,270,0.0,-999.0,86,-99.99,,,0.00,Acu-Link.com,2014-01-11 22:52:00,
2014-01-11 17:07:00,25.2,23.5,27.85,SSW,202,3.2,-999.0,93,-99.99,,,0.00,Acu-Link.com,2014-01-11 23:07:00,
2014-01-11 17:22:00,25.2,23.2,27.86,SSW,202,0.0,-999.0,92,-99.99,,,0.00,Acu-Link.com,2014-01-11 23:22:00,
2014-01-11 17:37:00,25.3,23.0,27.86,SSW,202,0.0,-999.0,91,-99.99,,,0.00,Acu-Link.com,2014-01-11 23:37:00,
2014-01-11 17:52:00,25.3,22.8,27.86,West,270,4.2,-999.0,90,-99.99,,,0.00,Acu-Link.com,2014-01-11 23:52:00,
2014-01-11 18:08:00,25.0,22.8,27.86,SSW,202,5.3,-999.0,91,-99.99,,,0.00,Acu-Link.com,2014-01-12 00:08:00,
2014-01-11 18:23:00,24.4,22.4,27.87,SW,225,4.2,-999.0,92,-99.99,,,0.00,Acu-Link.com,2014-01-12 00:23:00,
2014-01-11 18:38:00,24.6,22.9,27.89,NW,315,2.2,-999.0,93,-99.99,,,0.00,Acu-Link.com,2014-01-12 00:38:00,
2014-01-11 18:53:00,25.0,23.3,27.88,WSW,247,2.7,-999.0,93,-99.99,,,0.00,Acu-Link.com,2014-01-12 00:53:00,
2014-01-11 19:08:00,25.3,23.6,27.88,SW,225,3.7,-999.0,93,-99.99,,,0.00,Acu-Link.com,2014-01-12 01:08:00,
2014-01-11 19:23:00,25.3,23.8,27.89,SSW,202,5.8,-999.0,94,-99.99,,,0.00,Acu-Link.com,2014-01-12 01:23:00,
2014-01-11 19:38:00,25.2,23.7,27.89,South,180,0.0,-999.0,94,-99.99,,,0.00,Acu-Link.com,2014-01-12 01:38:00,
2014-01-11 19:53:00,25.0,23.8,27.89,SSW,202,3.2,-999.0,95,-99.99,,,0.00,Acu-Link.com,2014-01-12 01:53:00,
2014-01-11 20:08:00,25.3,24.1,27.89,South,180,1.1,-999.0,95,-99.99,,,0.00,Acu-Link.com,2014-01-12 02:08:00,
2014-01-11 20:24:00,25.0,24.0,27.88,NE,45,1.1,-999.0,96,-99.99,,,0.00,Acu-Link.com,2014-01-12 02:24:00,
2014-01-11 20:39:00,24.4,23.4,27.88,SW,225,0.0,-999.0,96,-99.99,,,0.00,Acu-Link.com,2014-01-12 02:39:00,
2014-01-11 20:54:00,24.3,23.3,27.88,SSW,202,2.7,-999.0,96,-99.99,,,0.00,Acu-Link.com,2014-01-12 02:54:00,
2014-01-11 21:09:00,23.7,22.7,27.88,SW,225,0.0,-999.0,96,-99.99,,,0.00,Acu-Link.com,2014-01-12 03:09:00,
2014-01-11 21:24:00,22.5,21.5,27.86,SSE,157,0.0,-999.0,96,-99.99,,,0.00,Acu-Link.com,2014-01-12 03:24:00,
2014-01-11 21:39:00,21.7,21.0,27.88,SW,225,0.0,-999.0,97,-99.99,,,0.00,Acu-Link.com,2014-01-12 03:39:00,
2014-01-11 21:54:00,23.2,22.5,27.87,SW,225,2.2,-999.0,97,-99.99,,,0.00,Acu-Link.com,2014-01-12 03:54:00,
2014-01-11 22:09:00,23.2,22.5,27.87,SW,225,0.0,-999.0,97,-99.99,,,0.00,Acu-Link.com,2014-01-12 04:09:00,
2014-01-11 22:24:00,23.5,22.8,27.87,WSW,247,1.7,-999.0,97,-99.99,,,0.00,Acu-Link.com,2014-01-12 04:24:00,
2014-01-11 22:40:00,23.9,23.2,27.88,SW,225,4.7,-999.0,97,-99.99,,,0.00,Acu-Link.com,2014-01-12 04:40:00,
2014-01-11 22:55:00,23.5,22.8,27.88,SW,225,4.2,-999.0,97,-99.99,,,0.00,Acu-Link.com,2014-01-12 04:55:00,
2014-01-11 23:10:00,22.1,21.4,27.88,SSE,157,0.0,-999.0,97,-99.99,,,0.00,Acu-Link.com,2014-01-12 05:10:00,
2014-01-11 23:25:00,22.3,21.6,27.87,SSW,202,5.3,-999.0,97,-99.99,,,0.00,Acu-Link.com,2014-01-12 05:25:00,
2014-01-11 23:40:00,22.6,21.6,27.86,SSW,202,1.1,-999.0,96,-99.99,,,0.00,Acu-Link.com,2014-01-12 05:40:00,
2014-01-11 23:55:00,19.9,18.7,27.85,SSE,157,0.0,-999.0,95,-99.99,,,0.00,Acu-Link.com,2014-01-12 05:55:00,